Time,TemperatureF,DewpointF,PressureIn,WindDirection,WindDirectionDegrees,WindSpeedMPH,WindSpeedGustMPH,Humidity,HourlyPrecipIn,Conditions,Clouds,dailyrainin,SoftwareType,DateUTC
2013-01-27 00:02:00,43.0,-99.9,30.04,SSW,210,7.0,10.0,-999,-99.99,,,-99.99,,2013-01-27 08:02:00,
2013-01-27 00:12:00,43.0,-99.9,30.05,SW,222,9.0,12.0,-999,-99.99,,,-99.99,,2013-01-27 08:12:00,
2013-01-27 00:22:00,42.0,-99.9,30.04,SSW,204,8.0,13.0,-999,-99.99,,,-99.99,,2013-01-27 08:22:00,
2013-01-27 00:32:00,43.0,-99.9,30.04,SSW,202,8.0,11.0,-999,-99.99,,,-99.99,,2013-01-27 08:32:00,
2013-01-27 00:42:00,42.0,-99.9,30.04,South,171,2.0,11.0,-999,-99.99,,,-99.99,,2013-01-27 08:42:00,
2013-01-27 00:52:00,42.0,-99.9,30.04,South,190,4.0,7.0,-999,-99.99,,,-99.99,,2013-01-27 08:52:00,
2013-01-27 01:03:00,42.0,-99.9,30.04,SSW,202,6.0,9.0,-999,-99.99,,,-99.99,,2013-01-27 09:03:00,
2013-01-27 01:11:00,42.0,-99.9,30.04,South,184,2.0,8.0,-999,-99.99,,,-99.99,,2013-01-27 09:11:00,
2013-01-27 01:22:00,42.0,-99.9,30.04,SSW,203,6.0,7.0,-999,-99.99,,,-99.99,,2013-01-27 09:22:00,
2013-01-27 01:32:00,42.0,-99.9,30.04,SSW,196,5.0,9.0,-999,-99.99,,,-99.99,,2013-01-27 09:32:00,
2013-01-27 01:42:00,42.0,-99.9,30.04,South,188,6.0,10.0,-999,-99.99,,,-99.99,,2013-01-27 09:42:00,
2013-01-27 01:52:00,42.0,-99.9,30.04,SSW,213,8.0,10.0,-999,-99.99,,,-99.99,,2013-01-27 09:52:00,
2013-01-27 02:01:00,42.0,-99.9,30.04,SW,215,8.0,12.0,-999,-99.99,,,-99.99,,2013-01-27 10:01:00,
2013-01-27 02:11:00,42.0,-99.9,30.04,SSW,206,5.0,9.0,-999,-99.99,,,-99.99,,2013-01-27 10:11:00,
2013-01-27 02:21:00,42.0,-99.9,30.04,SSW,205,5.0,7.0,-999,-99.99,,,-99.99,,2013-01-27 10:21:00,
2013-01-27 02:32:00,42.0,-99.9,30.04,SSW,209,6.0,7.0,-999,-99.99,,,-99.99,,2013-01-27 10:32:00,
2013-01-27 02:42:00,42.0,-99.9,30.05,South,189,5.0,6.0,-999,-99.99,,,-99.99,,2013-01-27 10:42:00,
2013-01-27 02:52:00,42.0,-99.9,30.04,South,187,2.0,5.0,-999,-99.99,,,-99.99,,2013-01-27 10:52:00,
2013-01-27 03:01:00,42.0,-99.9,30.04,SSE,163,2.0,3.0,-999,-99.99,,,-99.99,,2013-01-27 11:01:00,
2013-01-27 03:11:00,42.0,-99.9,30.04,South,179,5.0,9.0,-999,-99.99,,,-99.99,,2013-01-27 11:11:00,
2013-01-27 03:22:00,42.0,-99.9,30.04,South,182,4.0,7.0,-999,-99.99,,,-99.99,,2013-01-27 11:22:00,
2013-01-27 03:32:00,42.0,-99.9,30.04,SW,225,7.0,9.0,-999,-99.99,,,-99.99,,2013-01-27 11:32:00,
2013-01-27 03:42:00,42.0,-99.9,30.05,SW,234,7.0,10.0,-999,-99.99,,,-99.99,,2013-01-27 11:42:00,
2013-01-27 03:52:00,42.0,-99.9,30.04,SW,217,8.0,11.0,-999,-99.99,,,-99.99,,2013-01-27 11:52:00,
2013-01-27 04:03:00,42.0,-99.9,30.04,SW,220,9.0,13.0,-999,-99.99,,,-99.99,,2013-01-27 12:03:00,
2013-01-27 04:12:00,42.0,-99.9,30.04,WSW,238,7.0,10.0,-999,-99.99,,,-99.99,,2013-01-27 12:12:00,
2013-01-27 04:22:00,42.0,-99.9,30.04,SW,218,6.0,8.0,-999,-99.99,,,-99.99,,2013-01-27 12:22:00,
2013-01-27 04:33:00,42.0,-99.9,30.04,SSW,209,7.0,11.0,-999,-99.99,,,-99.99,,2013-01-27 12:33:00,
2013-01-27 04:42:00,42.0,-99.9,30.04,SW,222,7.0,9.0,-999,-99.99,,,-99.99,,2013-01-27 12:42:00,
2013-01-27 04:52:00,42.0,-99.9,30.04,SW,235,8.0,10.0,-999,-99.99,,,-99.99,,2013-01-27 12:52:00,
2013-01-27 05:02:00,42.0,-99.9,30.04,WSW,252,7.0,9.0,-999,-99.99,,,-99.99,,2013-01-27 13:02:00,
2013-01-27 05:12:00,42.0,-99.9,30.04,WSW,246,6.0,11.0,-999,-99.99,,,-99.99,,2013-01-27 13:12:00,
2013-01-27 05:22:00,42.0,-99.9,30.04,WSW,248,9.0,10.0,-999,-99.99,,,-99.99,,2013-01-27 13:22:00,
2013-01-27 05:32:00,42.0,-99.9,30.04,WSW,240,5.0,8.0,-999,-99.99,,,-99.99,,2013-01-27 13:32:00,
2013-01-27 05:42:00,42.0,-99.9,30.04,SW,214,5.0,7.0,-999,-99.99,,,-99.99,,2013-01-27 13:42:00,
2013-01-27 05:52:00,42.0,-99.9,30.04,WSW,237,8.0,10.0,-999,-99.99,,,-99.99,,2013-01-27 13:52:00,
2013-01-27 06:02:00,42.0,-99.9,30.04,SW,234,6.0,9.0,-999,-99.99,,,-99.99,,2013-01-27 14:02:00,
2013-01-27 06:12:00,42.0,-99.9,30.04,SW,230,5.0,8.0,-999,-99.99,,,-99.99,,2013-01-27 14:12:00,
2013-01-27 06:22:00,42.0,-99.9,30.04,SW,231,5.0,9.0,-999,-99.99,,,-99.99,,2013-01-27 14:22:00,
2013-01-27 06:33:00,42.0,-99.9,30.05,SW,226,6.0,11.0,-999,-99.99,,,-99.99,,2013-01-27 14:33:00,
2013-01-27 06:43:00,42.0,-99.9,30.05,SW,236,5.0,7.0,-999,-99.99,,,-99.99,,2013-01-27 14:43:00,
2013-01-27 06:53:00,42.0,-99.9,30.05,WSW,244,8.0,9.0,-999,-99.99,,,-99.99,,2013-01-27 14:53:00,
2013-01-27 07:02:00,42.0,-99.9,30.04,SW,226,5.0,8.0,-999,-99.99,,,-99.99,,2013-01-27 15:02:00,
2013-01-27 07:12:00,42.0,-99.9,30.04,South,183,4.0,6.0,-999,-99.99,,,-99.99,,2013-01-27 15:12:00,
2013-01-27 07:22:00,42.0,-99.9,30.04,SSW,201,4.0,7.0,-999,-99.99,,,-99.99,,2013-01-27 15:22:00,
2013-01-27 07:33:00,42.0,-99.9,30.04,South,183,3.0,6.0,-999,-99.99,,,-99.99,,2013-01-27 15:33:00,
2013-01-27 07:42:00,42.0,-99.9,30.04,South,176,3.0,9.0,-999,-99.99,,,-99.99,,2013-01-27 15:42:00,
2013-01-27 07:53:00,42.0,-99.9,30.04,SSE,162,6.0,10.0,-999,-99.99,,,-99.99,,2013-01-27 15:53:00,
2013-01-27 08:03:00,42.0,-99.9,30.05,South,173,6.0,9.0,-999,-99.99,,,-99.99,,2013-01-27 16:03:00,
2013-01-27 08:12:00,42.0,-99.9,30.05,South,178,5.0,10.0,-999,-99.99,,,-99.99,,2013-01-27 16:12:00,
2013-01-27 08:22:00,42.0,-99.9,30.04,South,174,4.0,8.0,-999,-99.99,,,-99.99,,2013-01-27 16:22:00,
2013-01-27 08:33:00,42.0,-99.9,30.05,SSW,203,6.0,11.0,-999,-99.99,,,-99.99,,2013-01-27 16:33:00,
2013-01-27 08:42:00,42.0,-99.9,30.05,South,172,2.0,9.0,-999,-99.99,,,-99.99,,2013-01-27 16:42:00,
2013-01-27 08:53:00,42.0,-99.9,30.05,SSW,194,4.0,8.0,-999,-99.99,,,-99.99,,2013-01-27 16:53:00,
2013-01-27 09:02:00,42.0,-99.9,30.06,South,188,3.0,8.0,-999,-99.99,,,-99.99,,2013-01-27 17:02:00,
2013-01-27 09:12:00,42.0,-99.9,30.06,SSW,194,8.0,12.0,-999,-99.99,,,-99.99,,2013-01-27 17:12:00,
2013-01-27 09:22:00,42.0,-99.9,30.06,South,187,6.0,13.0,-999,-99.99,,,-99.99,,2013-01-27 17:22:00,
2013-01-27 09:33:00,42.0,-99.9,30.06,SSW,203,8.0,12.0,-999,-99.99,,,-99.99,,2013-01-27 17:33:00,
2013-01-27 09:42:00,42.0,-99.9,30.06,SW,215,7.0,10.0,-999,-99.99,,,-99.99,,2013-01-27 17:42:00,
2013-01-27 09:53:00,43.0,-99.9,30.06,SW,214,7.0,9.0,-999,-99.99,,,-99.99,,2013-01-27 17:53:00,
2013-01-27 10:03:00,43.0,-99.9,30.06,SSW,208,8.0,14.0,-999,-99.99,,,-99.99,,2013-01-27 18:03:00,
2013-01-27 10:12:00,43.0,-99.9,30.06,SSW,211,2.0,9.0,-999,-99.99,,,-99.99,,2013-01-27 18:12:00,
2013-01-27 10:23:00,43.0,-99.9,30.06,SSE,156,4.0,7.0,-999,-99.99,,,-99.99,,2013-01-27 18:23:00,
2013-01-27 10:32:00,43.0,-99.9,30.06,South,190,5.0,10.0,-999,-99.99,,,-99.99,,2013-01-27 18:32:00,
2013-01-27 10:42:00,43.0,-99.9,30.07,SSW,199,10.0,15.0,-999,-99.99,,,-99.99,,2013-01-27 18:42:00,
2013-01-27 10:53:00,43.0,-99.9,30.07,SSW,197,6.0,9.0,-999,-99.99,,,-99.99,,2013-01-27 18:53:00,
2013-01-27 11:02:00,43.0,-99.9,30.07,SSW,196,8.0,12.0,-999,-99.99,,,-99.99,,2013-01-27 19:02:00,
2013-01-27 11:12:00,43.0,-99.9,30.07,South,187,3.0,11.0,-999,-99.99,,,-99.99,,2013-01-27 19:12:00,
2013-01-27 11:22:00,42.0,-99.9,30.07,South,182,4.0,9.0,-999,-99.99,,,-99.99,,2013-01-27 19:22:00,
2013-01-27 11:33:00,43.0,-99.9,30.06,South,169,6.0,11.0,-999,-99.99,,,-99.99,,2013-01-27 19:33:00,
2013-01-27 11:42:00,43.0,-99.9,30.06,South,177,6.0,14.0,-999,-99.99,,,-99.99,,2013-01-27 19:42:00,
2013-01-27 11:52:00,43.0,-99.9,30.06,SSW,194,4.0,16.0,-999,-99.99,,,-99.99,,2013-01-27 19:52:00,
2013-01-27 12:03:00,43.0,-99.9,30.06,South,178,9.0,16.0,-999,-99.99,,,-99.99,,2013-01-27 20:03:00,
2013-01-27 12:12:00,43.0,-99.9,30.05,SSW,197,7.0,14.0,-999,-99.99,,,-99.99,,2013-01-27 20:12:00,
2013-01-27 12:22:00,43.0,-99.9,30.05,South,187,13.0,19.0,-999,-99.99,,,-99.99,,2013-01-27 20:22:00,
2013-01-27 12:33:00,43.0,-99.9,30.04,SSW,193,3.0,17.0,-999,-99.99,,,-99.99,,2013-01-27 20:33:00,
2013-01-27 12:42:00,43.0,-99.9,30.04,South,173,9.0,15.0,-999,-99.99,,,-99.99,,2013-01-27 20:42:00,
2013-01-27 12:52:00,43.0,-99.9,30.04,South,175,8.0,13.0,-999,-99.99,,,-99.99,,2013-01-27 20:52:00,
2013-01-27 13:02:00,42.0,-99.9,30.04,South,174,9.0,15.0,-999,-99.99,,,-99.99,,2013-01-27 21:02:00,
2013-01-27 13:12:00,42.0,-99.9,30.03,SSE,168,7.0,11.0,-999,-99.99,,,-99.99,,2013-01-27 21:12:00,
2013-01-27 13:23:00,42.0,-99.9,30.03,South,176,10.0,18.0,-999,-99.99,,,-99.99,,2013-01-27 21:23:00,
2013-01-27 13:33:00,42.0,-99.9,30.02,South,173,8.0,16.0,-999,-99.99,,,-99.99,,2013-01-27 21:33:00,
2013-01-27 13:43:00,42.0,-99.9,30.01,South,172,10.0,16.0,-999,-99.99,,,-99.99,,2013-01-27 21:43:00,
2013-01-27 13:52:00,42.0,-99.9,30.01,SSE,162,9.0,15.0,-999,-99.99,,,-99.99,,2013-01-27 21:52:00,
2013-01-27 14:03:00,42.0,-99.9,30.01,South,184,8.0,14.0,-999,-99.99,,,-99.99,,2013-01-27 22:03:00,
2013-01-27 14:12:00,42.0,-99.9,30.01,South,187,9.0,17.0,-999,-99.99,,,-99.99,,2013-01-27 22:12:00,
2013-01-27 14:22:00,42.0,-99.9,30.01,South,191,9.0,16.0,-999,-99.99,,,-99.99,,2013-01-27 22:22:00,
2013-01-27 14:33:00,42.0,-99.9,30.01,SSW,198,10.0,19.0,-999,-99.99,,,-99.99,,2013-01-27 22:33:00,
2013-01-27 14:42:00,42.0,-99.9,30.01,SSW,197,7.0,14.0,-999,-99.99,,,-99.99,,2013-01-27 22:42:00,
2013-01-27 14:52:00,42.0,-99.9,30.01,South,188,7.0,17.0,-999,-99.99,,,-99.99,,2013-01-27 22:52:00,
2013-01-27 15:02:00,42.0,-99.9,30.01,South,180,8.0,16.0,-999,-99.99,,,-99.99,,2013-01-27 23:02:00,
2013-01-27 15:12:00,42.0,-99.9,30.01,SSE,168,7.0,13.0,-999,-99.99,,,-99.99,,2013-01-27 23:12:00,
2013-01-27 15:22:00,42.0,-99.9,30.01,South,173,11.0,16.0,-999,-99.99,,,-99.99,,2013-01-27 23:22:00,
2013-01-27 15:32:00,42.0,-99.9,30.01,SSE,165,7.0,15.0,-999,-99.99,,,-99.99,,2013-01-27 23:32:00,
2013-01-27 15:42:00,42.0,-99.9,30.01,South,169,6.0,11.0,-999,-99.99,,,-99.99,,2013-01-27 23:42:00,
2013-01-27 15:53:00,42.0,-99.9,30.01,SSE,165,9.0,15.0,-999,-99.99,,,-99.99,,2013-01-27 23:53:00,
2013-01-27 16:02:00,42.0,-99.9,30.01,South,179,9.0,15.0,-999,-99.99,,,-99.99,,2013-01-28 00:02:00,
2013-01-27 16:12:00,42.0,-99.9,30.01,South,173,8.0,16.0,-999,-99.99,,,-99.99,,2013-01-28 00:12:00,
2013-01-27 16:22:00,42.0,-99.9,30.01,SSE,167,7.0,13.0,-999,-99.99,,,-99.99,,2013-01-28 00:22:00,
2013-01-27 16:33:00,42.0,-99.9,30.01,South,169,8.0,15.0,-999,-99.99,,,-99.99,,2013-01-28 00:33:00,
2013-01-27 16:42:00,42.0,-99.9,30.01,SSE,166,8.0,15.0,-999,-99.99,,,-99.99,,2013-01-28 00:42:00,
2013-01-27 16:52:00,42.0,-99.9,30.01,South,179,8.0,11.0,-999,-99.99,,,-99.99,,2013-01-28 00:52:00,
2013-01-27 17:02:00,42.0,-99.9,30.00,SSW,193,7.0,13.0,-999,-99.99,,,-99.99,,2013-01-28 01:02:00,
2013-01-27 17:12:00,42.0,-99.9,30.01,SSE,167,10.0,14.0,-999,-99.99,,,-99.99,,2013-01-28 01:12:00,
2013-01-27 17:22:00,42.0,-99.9,30.00,South,179,7.0,13.0,-999,-99.99,,,-99.99,,2013-01-28 01:22:00,
2013-01-27 17:33:00,42.0,-99.9,30.00,SSW,202,9.0,14.0,-999,-99.99,,,-99.99,,2013-01-28 01:33:00,
2013-01-27 17:42:00,42.0,-99.9,30.00,South,185,8.0,13.0,-999,-99.99,,,-99.99,,2013-01-28 01:42:00,
2013-01-27 17:52:00,42.0,-99.9,30.00,South,169,7.0,11.0,-999,-99.99,,,-99.99,,2013-01-28 01:52:00,
2013-01-27 18:02:00,42.0,-99.9,30.00,South,184,8.0,12.0,-999,-99.99,,,-99.99,,2013-01-28 02:02:00,
2013-01-27 18:12:00,42.0,-99.9,30.01,South,178,6.0,11.0,-999,-99.99,,,-99.99,,2013-01-28 02:12:00,
2013-01-27 18:22:00,42.0,-99.9,30.00,South,170,6.0,15.0,-999,-99.99,,,-99.99,,2013-01-28 02:22:00,
2013-01-27 18:32:00,42.0,-99.9,30.01,South,185,5.0,11.0,-999,-99.99,,,-99.99,,2013-01-28 02:32:00,
2013-01-27 18:42:00,42.0,-99.9,30.01,SSW,195,5.0,9.0,-999,-99.99,,,-99.99,,2013-01-28 02:42:00,
2013-01-27 18:53:00,42.0,-99.9,30.00,SSE,168,5.0,12.0,-999,-99.99,,,-99.99,,2013-01-28 02:53:00,
2013-01-27 19:02:00,42.0,-99.9,30.00,SSE,160,5.0,13.0,-999,-99.99,,,-99.99,,2013-01-28 03:02:00,
2013-01-27 19:12:00,42.0,-99.9,30.01,South,170,6.0,11.0,-999,-99.99,,,-99.99,,2013-01-28 03:12:00,
2013-01-27 19:22:00,42.0,-99.9,30.01,South,178,6.0,12.0,-999,-99.99,,,-99.99,,2013-01-28 03:22:00,
2013-01-27 19:32:00,42.0,-99.9,30.01,SSW,197,6.0,9.0,-999,-99.99,,,-99.99,,2013-01-28 03:32:00,
2013-01-27 19:42:00,42.0,-99.9,30.01,South,175,4.0,9.0,-999,-99.99,,,-99.99,,2013-01-28 03:42:00,
2013-01-27 19:53:00,42.0,-99.9,30.01,South,191,4.0,11.0,-999,-99.99,,,-99.99,,2013-01-28 03:53:00,
2013-01-27 20:02:00,42.0,-99.9,30.01,SSW,199,7.0,10.0,-999,-99.99,,,-99.99,,2013-01-28 04:02:00,
2013-01-27 20:12:00,42.0,-99.9,30.01,South,169,3.0,11.0,-999,-99.99,,,-99.99,,2013-01-28 04:12:00,
2013-01-27 20:22:00,42.0,-99.9,30.01,SSE,154,3.0,9.0,-999,-99.99,,,-99.99,,2013-01-28 04:22:00,
2013-01-27 20:32:00,42.0,-99.9,30.01,SSW,193,5.0,9.0,-999,-99.99,,,-99.99,,2013-01-28 04:32:00,
2013-01-27 20:42:00,42.0,-99.9,30.01,South,191,4.0,8.0,-999,-99.99,,,-99.99,,2013-01-28 04:42:00,
2013-01-27 20:52:00,42.0,-99.9,30.01,SSE,168,6.0,8.0,-999,-99.99,,,-99.99,,2013-01-28 04:52:00,
2013-01-27 21:04:00,42.0,-99.9,30.01,South,172,7.0,10.0,-999,-99.99,,,-99.99,,2013-01-28 05:04:00,
2013-01-27 21:12:00,42.0,-99.9,30.01,South,170,8.0,11.0,-999,-99.99,,,-99.99,,2013-01-28 05:12:00,
2013-01-27 21:22:00,42.0,-99.9,30.01,SSE,157,4.0,9.0,-999,-99.99,,,-99.99,,2013-01-28 05:22:00,
2013-01-27 21:32:00,42.0,-99.9,30.01,SSE,159,6.0,11.0,-999,-99.99,,,-99.99,,2013-01-28 05:32:00,
2013-01-27 21:42:00,41.0,-99.9,30.01,South,170,4.0,7.0,-999,-99.99,,,-99.99,,2013-01-28 05:42:00,
2013-01-27 21:52:00,41.0,-99.9,30.01,SE,146,5.0,7.0,-999,-99.99,,,-99.99,,2013-01-28 05:52:00,
2013-01-27 22:02:00,41.0,-99.9,30.01,SSE,158,5.0,9.0,-999,-99.99,,,-99.99,,2013-01-28 06:02:00,
2013-01-27 22:12:00,41.0,-99.9,30.01,SSE,155,3.0,6.0,-999,-99.99,,,-99.99,,2013-01-28 06:12:00,
2013-01-27 22:22:00,41.0,-99.9,30.01,SSE,161,4.0,8.0,-999,-99.99,,,-99.99,,2013-01-28 06:22:00,
2013-01-27 22:32:00,41.0,-99.9,30.01,SSE,147,5.0,7.0,-999,-99.99,,,-99.99,,2013-01-28 06:32:00,
2013-01-27 22:42:00,41.0,-99.9,30.00,SSE,150,5.0,7.0,-999,-99.99,,,-99.99,,2013-01-28 06:42:00,
2013-01-27 22:52:00,41.0,-99.9,30.00,SSE,152,5.0,7.0,-999,-99.99,,,-99.99,,2013-01-28 06:52:00,
2013-01-27 23:03:00,41.0,-99.9,30.01,SSE,151,5.0,8.0,-999,-99.99,,,-99.99,,2013-01-28 07:03:00,
2013-01-27 23:11:00,41.0,-99.9,30.01,SE,145,3.0,6.0,-999,-99.99,,,-99.99,,2013-01-28 07:11:00,
2013-01-27 23:22:00,41.0,-99.9,30.01,SSE,153,4.0,6.0,-999,-99.99,,,-99.99,,2013-01-28 07:22:00,
2013-01-27 23:32:00,41.0,-99.9,30.01,SSE,156,4.0,7.0,-999,-99.99,,,-99.99,,2013-01-28 07:32:00,
2013-01-27 23:42:00,41.0,-99.9,30.01,SSE,168,5.0,8.0,-999,-99.99,,,-99.99,,2013-01-28 07:42:00,
2013-01-27 23:52:00,41.0,-99.9,30.01,SSE,168,5.0,8.0,-999,-99.99,,,-99.99,,2013-01-28 07:52:00,